Doylestown, PA

4:34 AM EDT on September 26, 2016 (GMT -0400)
Doylestown

Weather History for KDYL - May, 2014

Change the Weather History Date:

Thursday, May 1, 2014

  Actual Average (KTTN) Record (KTTN)
Temperature  
Mean Temperature 62 °F 56 °F  
Max Temperature 75 °F 67 °F 91 °F (2010)
Min Temperature 52 °F 46 °F 35 °F (1963)
Degree Days  
Heating Degree Days 2 9  
Month to date heating degree days 9  
Since 1 July heating degree days 4977  
Cooling Degree Days 0 1  
Month to date cooling degree days 1  
Year to date cooling degree days 9  
Growing Degree Days 12 (Base 50)    
Moisture  
Dew Point 57 °F    
Average Humidity 82    
Maximum Humidity 100    
Minimum Humidity 41    
Precipitation  
Precipitation 0.17 in 0.08 in 2.09 in (1976)
Month to date precipitation 0.08  
Year to date precipitation 13.23  
Sea Level Pressure  
Sea Level Pressure 29.79 in    
Wind  
Wind Speed 5 mph (WSW)    
Max Wind Speed 10 mph    
Max Gust Speed -    
Visibility 8 miles    
Events Rain , Thunderstorm    
T = Trace of Precipitation, MM = Missing Value Source: NWS Daily Summary

Daily Weather History Graph

Daily Weather History Graph

Search for Another Location

Airport or City:

Trip Planner

Search our weather history database for the weather conditions in past years. The results will help you decide how hot, cold, wet, or windy it might be!

Date:

Astronomy

May. 01, 2014 Rise Set
Actual Time 5:59 AM EDT 7:55 PM EDT
Civil Twilight 5:30 AM EDT 8:25 PM EDT
Nautical Twilight 4:54 AM EDT 9:01 PM EDT
Astronomical Twilight 4:15 AM EDT 9:40 PM EDT
Moon 7:45 AM EDT (5/1) 10:27 PM EDT (5/1)
Length of Visible Light 14h 55m
Length of Day
13h 55m
Waxing Crescent, 6% of the Moon is Illuminated
May 1
Waxing Crescent
May 6
First Quarter
May 14
Full
May 21
Last Quarter
May 28
New

Hourly Weather History & Observations

Time (EDT) Temp. Dew Point Humidity Pressure Visibility Wind Dir Wind Speed Gust Speed Precip Events Conditions
12:19 AM 52.0 °F - N/A% 29.88 in 6.0 mi Calm Calm - 0.01 in Rain Light Rain
12:37 AM 53.1 °F - N/A% 29.87 in 1.8 mi Variable 3.5 mph - 0.01 in   Overcast
12:54 AM 53.1 °F - N/A% 29.88 in 0.8 mi Calm Calm - 0.01 in   Mist
1:13 AM 54.0 °F - N/A% 29.86 in 1.0 mi Variable 3.5 mph - 0.00 in Rain Light Rain
1:26 AM 55.9 °F - N/A% 29.85 in 3.0 mi SE 5.8 mph - 0.00 in Rain Light Rain
1:54 AM 57.9 °F - N/A% 29.84 in 5.0 mi SSE 9.2 mph - 0.01 in   Haze
2:54 AM 60.1 °F - N/A% 29.81 in 5.0 mi South 5.8 mph - 0.00 in Rain Light Rain
3:54 AM 61.0 °F 61.0 °F 100% 29.80 in 4.0 mi South 6.9 mph - 0.01 in   Overcast
4:54 AM 62.1 °F 62.1 °F 100% 29.78 in 8.0 mi South 6.9 mph - 0.00 in Rain Light Rain
5:54 AM 62.1 °F 62.1 °F 100% 29.80 in 7.0 mi SSW 4.6 mph - 0.08 in Rain Light Rain
6:11 AM 61.0 °F 61.0 °F 100% 29.80 in 10.0 mi SW 9.2 mph - 0.00 in   Overcast
6:34 AM 61.0 °F 61.0 °F 100% 29.80 in 10.0 mi SW 5.8 mph - 0.00 in   Overcast
7:54 AM 59.0 °F 59.0 °F 100% 29.81 in 10.0 mi SW 5.8 mph - N/A   Overcast
8:33 AM 59.0 °F 57.9 °F 96% 29.81 in 10.0 mi Variable 6.9 mph - 0.00 in Rain Light Rain
8:46 AM 59.0 °F 57.9 °F 96% 29.82 in 10.0 mi WSW 9.2 mph - 0.00 in   Mostly Cloudy
8:54 AM 59.0 °F 57.9 °F 96% 29.83 in 10.0 mi West 10.4 mph - 0.00 in   Mostly Cloudy
9:04 AM 59.0 °F 57.9 °F 96% 29.83 in 10.0 mi West 4.6 mph - N/A   Overcast
9:17 AM 59.0 °F 57.0 °F 93% 29.82 in 10.0 mi West 6.9 mph - N/A   Overcast
9:42 AM 60.1 °F 57.9 °F 93% 29.83 in 10.0 mi West 3.5 mph - N/A   Overcast
9:54 AM 60.1 °F 57.0 °F 90% 29.83 in 10.0 mi West 8.1 mph - N/A   Overcast
10:54 AM 60.1 °F 55.9 °F 86% 29.82 in 10.0 mi West 5.8 mph - N/A   Overcast
11:54 AM 63.0 °F 55.9 °F 78% 29.80 in 10.0 mi NW 4.6 mph - N/A   Scattered Clouds
1:54 PM 72.0 °F 54.0 °F 53% 29.76 in 10.0 mi SW 10.4 mph - N/A   Mostly Cloudy
3:54 PM 73.0 °F 51.1 °F 46% 29.72 in 10.0 mi WSW 8.1 mph - N/A   Partly Cloudy
4:54 PM 73.9 °F 48.9 °F 41% 29.70 in 10.0 mi West 8.1 mph - N/A   Scattered Clouds
5:54 PM 73.0 °F 48.9 °F 42% 29.68 in 10.0 mi WSW 4.6 mph - N/A   Partly Cloudy
6:54 PM 72.0 °F 51.1 °F 48% 29.69 in 10.0 mi WSW 4.6 mph - N/A   Mostly Cloudy
7:54 PM 68.0 °F 53.1 °F 59% 29.70 in 10.0 mi WSW 3.5 mph - N/A   Partly Cloudy
8:47 PM 64.0 °F 57.0 °F 78% 29.73 in 8.0 mi West 6.9 mph - 0.03 in Rain , Thunderstorm Rain
8:54 PM 63.0 °F 57.0 °F 81% 29.73 in 7.0 mi West 9.2 mph - 0.04 in Rain , Thunderstorm Light Rain
9:04 PM 61.0 °F 57.9 °F 90% 29.73 in 10.0 mi WNW 4.6 mph - 0.01 in Rain Light Rain
9:54 PM 60.1 °F 57.9 °F 93% 29.73 in 10.0 mi Calm Calm - 0.02 in Rain Light Rain
10:54 PM 60.1 °F 53.1 °F 78% 29.73 in 10.0 mi NNW 8.1 mph - 0.00 in   Mostly Cloudy
11:54 PM 57.9 °F - N/A% 29.75 in 10.0 mi NW 4.6 mph - N/A   Clear